Location: Unspecified
(0.0000°N, 0.0000°E)
Time: 18:35:28
(UTC+00:00)

Vanguard 1 - Visible Passes

Search period start: 30 September 2016 00:00
Search period end: 10 October 2016 00:00
Orbit: 649 x 3835 km, 34.2° (Epoch: 27 September)

Date Brightness Start Highest point End Pass type
(mag) Time Alt. Az. Time Alt. Az. Time Alt. Az.
30 Sep 9.2 04:55:45 10° SW 05:00:53 84° SE 05:05:16 10° NE visible
30 Sep 13.7 19:15:57 10° W 19:36:45 39° SW 19:54:22 10° SSE visible
30 Sep 13.7 21:57:35 10° SW 22:06:33 14° SSW 22:10:53 13° S visible
01 Oct 12.1 03:03:27 15° SE 03:03:27 15° SE 03:04:48 10° ESE visible
01 Oct 9.5 05:17:08 10° WSW 05:21:53 48° NW 05:26:10 10° NE visible
01 Oct 13.7 19:39:53 10° W 19:59:09 31° SSW 20:15:12 10° SSE visible
01 Oct 13.7 22:24:20 10° SSW 22:29:48 12° SSW 22:31:08 12° S visible
02 Oct 11.3 03:23:56 28° SE 03:23:56 28° SE 03:26:57 10° E visible
02 Oct 13.6 17:31:25 10° WNW 17:52:15 59° SW 18:14:11 10° SE visible
02 Oct 13.7 20:04:38 10° WSW 20:21:53 25° SSW 20:36:04 10° SSE visible
02 Oct 13.8 22:50:12 10° SSW 22:51:19 10° SSW 22:51:19 10° SSW visible
03 Oct 10.1 03:44:26 52° SE 03:44:26 52° SE 03:48:31 10° ENE visible
03 Oct 13.8 17:53:53 10° WNW 18:14:24 48° SW 18:35:18 10° SE visible
03 Oct 13.7 20:30:07 10° WSW 20:44:58 20° SSW 20:57:04 10° SSE visible
04 Oct 9.3 04:04:55 80° W 04:05:10 84° NW 04:09:40 10° NE visible
04 Oct 13.9 18:16:54 10° W 18:36:48 39° SSW 18:56:22 10° SSE visible
04 Oct 13.7 20:56:06 10° SW 21:08:22 17° SSW 21:18:21 10° SSE visible
05 Oct 9.8 04:25:24 41° WNW 04:26:08 44° NW 04:30:24 10° NE visible
05 Oct 13.9 18:40:35 10° W 18:59:31 32° SSW 19:17:26 10° SSE visible
05 Oct 13.7 21:21:53 10° SW 21:31:58 15° S 21:38:38 12° SSE visible
06 Oct 10.6 04:45:50 21° WNW 04:47:03 23° NW 04:50:41 10° NNE visible
06 Oct 13.9 19:04:59 10° WSW 19:22:35 26° SSW 19:38:38 10° SSE visible
06 Oct 13.7 21:46:41 10° SSW 21:55:35 14° S 21:58:32 14° S visible
07 Oct 11.3 05:06:16 11° WNW 05:08:02 12° NW 05:09:58 10° NNW visible
07 Oct 13.9 19:30:02 10° WSW 19:46:00 22° SSW 20:00:06 10° SSE visible
07 Oct 13.7 22:10:01 10° SSW 22:18:22 15° S 22:18:22 15° S visible
08 Oct 12.1 03:13:53 13° NE 03:13:53 13° NE 03:14:17 10° NE visible
08 Oct 13.8 19:55:26 10° SW 20:09:44 19° SSW 20:21:59 10° SSE visible
08 Oct 13.7 22:32:14 10° SSW 22:38:10 15° S 22:38:10 15° S visible
09 Oct 11.8 03:34:15 14° NNE 03:34:15 14° NNE 03:34:56 10° NNE visible
09 Oct 14.0 17:42:10 10° W 17:59:49 31° SSW 18:18:51 10° SSE visible
09 Oct 13.7 20:20:36 10° SW 20:33:38 17° S 20:44:29 10° SSE visible
09 Oct 13.7 22:53:49 10° SSW 22:57:56 15° SSW 22:57:56 15° SSW visible
